Weather History for Hamilton Island, QU

Change the Weather History Date:

Saturday, October 15, 2011

  Actual Average Record
Temperature  
Mean Temperature 78 °F -  
Max Temperature 82 °F - - ()
Min Temperature 75 °F - - ()
Cooling Degree Days 14    
Growing Degree Days 28 (Base 50)    
Moisture  
Dew Point 72 °F    
Average Humidity 79    
Maximum Humidity 89    
Minimum Humidity 61    
Precipitation  
Precipitation 0.00 in - - ()
Sea Level Pressure  
Sea Level Pressure 29.86 in    
Wind  
Wind Speed 18 mph ()    
Max Wind Speed 33 mph    
Max Gust Speed 39 mph    
T = Trace of Precipitation, MM = Missing Value Source: Averaged Metar Reports

Daily Weather History Graph

Daily Weather History Graph

Search for Another Location

Airport:

Trip Planner

Search our weather history database for the weather conditions in past years. The results will help you decide how hot, cold, wet, or windy it might be!

Date:

Astronomy

Oct. 15, 2011 Rise Set
Actual Time 5:34 AM AEST 6:06 PM AEST
Civil Twilight 5:11 AM AEST 6:28 PM AEST
Nautical Twilight 4:45 AM AEST 6:54 PM AEST
Astronomical Twilight 4:19 AM AEST 7:21 PM AEST
Moon 8:45 PM AEST (10/15) 7:14 AM AEST (10/15)
Length of Visible Light 13h 16m
Length of Day
12h 31m
Waning Gibbous, 92% of the Moon is Illuminated
Oct 15
Waning Gibbous
Oct 20
Last Quarter
Oct 27
New
Nov 3
First Quarter
Nov 11
Full

Hourly Weather History & Observations

Time (AEST) Temp. Heat Index Dew Point Humidity Pressure Visibility Wind Dir Wind Speed Gust Speed Precip Events Conditions
12:00 AM 76 °F - 71 °F 82% 29.94 in - NNW 16.1 mph - -  
12:00 AM 77.0 °F - 71.6 °F 83% 29.95 in - NNW 16.1 mph - N/A   Unknown
1:00 AM 77.0 °F - 71.6 °F 83% 29.92 in - NNW 10.4 mph - N/A   Unknown
2:00 AM 77.0 °F - 69.8 °F 78% 29.89 in - North 8.1 mph - N/A   Unknown
3:00 AM 76 °F - 69 °F 75% 29.86 in - NNW 13.8 mph - -  
3:00 AM 75.2 °F - 69.8 °F 83% 29.86 in - NNW 13.8 mph - N/A   Unknown
4:00 AM 77.0 °F - 69.8 °F 78% 29.86 in - North 13.8 mph - N/A   Unknown
5:00 AM 75.2 °F - 69.8 °F 83% 29.89 in - NNW 9.2 mph - N/A   Unknown
6:00 AM 76 °F - 71 °F 82% 29.92 in - NW 11.5 mph - -  
6:00 AM 75.2 °F - 71.6 °F 89% 29.92 in - NW 11.5 mph - N/A   Unknown
7:00 AM 77.0 °F - 73.4 °F 89% 29.92 in - NNW 16.1 mph - N/A   Unknown
8:00 AM 78.8 °F - 71.6 °F 78% 29.92 in - NNW 21.9 mph - N/A   Unknown
9:00 AM 79 °F - 72 °F 73% 29.93 in - NW 25.3 mph - -  
9:00 AM 78.8 °F - 71.6 °F 78% 29.92 in - NW 24.2 mph - N/A   Unknown
10:00 AM 80.6 °F 84.6 °F 71.6 °F 74% 29.92 in - NW 26.5 mph - N/A   Unknown
11:00 AM 80.6 °F 84.6 °F 71.6 °F 74% 29.89 in - NNW 25.3 mph - N/A   Unknown
12:00 PM 82 °F - 71 °F 61% 29.87 in - NW 27.6 mph - -  
12:00 PM 82.4 °F 87.2 °F 71.6 °F 70% 29.86 in - NW 27.6 mph - N/A   Unknown
1:00 PM 82.4 °F 87.2 °F 71.6 °F 70% 29.83 in - NNW 29.9 mph - N/A   Unknown
2:00 PM 82.4 °F 87.2 °F 71.6 °F 70% 29.80 in - NNW 27.6 mph - N/A   Unknown
2:44 PM 80.6 °F 83.9 °F 69.8 °F 70% 29.77 in - NNW 27.6 mph 39.1 mph N/A   Unknown
3:00 PM 80 °F - 71 °F 66% 29.78 in - NNW 31.1 mph - -  
3:00 PM 80.6 °F 84.6 °F 71.6 °F 74% 29.77 in - NNW 31.1 mph - N/A   Unknown
4:00 PM 78.8 °F - 71.6 °F 78% 29.77 in - NNW 31.1 mph - N/A   Unknown
5:00 PM 77.0 °F - 71.6 °F 83% 29.77 in - NNW 32.2 mph - N/A   Unknown
6:00 PM 77 °F - 72 °F 81% 29.79 in - NNW 33.4 mph - -  
6:00 PM 77.0 °F - 71.6 °F 83% 29.80 in - NNW 32.2 mph - N/A   Unknown
7:00 PM 77.0 °F - 71.6 °F 83% 29.80 in - NW 27.6 mph - N/A   Unknown
8:00 PM 77.0 °F - 73.4 °F 89% 29.83 in - NW 31.1 mph - N/A   Unknown
9:00 PM 76 °F - 73 °F 86% 29.84 in - NW 28.8 mph - -  
9:00 PM 77.0 °F - 73.4 °F 89% 29.83 in - NW 28.8 mph - N/A   Unknown
10:00 PM 77.0 °F - 73.4 °F 89% 29.86 in - NW 31.1 mph - N/A   Unknown
11:00 PM 77.0 °F - 73.4 °F 89% 29.86 in - NW 26.5 mph 38.0 mph N/A   Unknown